Weather reports worldwide

Advertisment
Brownsville/Int., United States of America (72250): temperature & dewpoint: 15.05.2019 10:00:00 - 21.05.2019 10:00:00 (CDT)Brownsville/Int., United States of America (72250): wind speed & gusts: 15.05.2019 10:00:00 - 21.05.2019 10:00:00 (CDT)Brownsville/Int., United States of America (72250): wind direction: 15.05.2019 10:00:00 - 21.05.2019 10:00:00 (CDT)Brownsville/Int., United States of America (72250): reduced air pressure: 15.05.2019 10:00:00 - 21.05.2019 10:00:00 (CDT)Brownsville/Int., United States of America (72250): visibility: 15.05.2019 10:00:00 - 21.05.2019 10:00:00 (CDT)Brownsville/Int., United States of America (72250): precipitation: 15.05.2019 10:00:00 - 21.05.2019 10:00:00 (CDT)
Date & Time tt [°C] td [°C] ff [km/h] ff [kn] fx [km/h] fx [kn] dd ppp [hPa] vv [km] rr [mm]
21.05.2019 10:00:00 31,1 25,0 44 24 67 36 SSE 1004,0 16 -
21.05.2019 09:00:00 29,4 25,0 42 23 67 36 S 1003,0 16 -
21.05.2019 08:00:00 27,8 25,0 37 20 50 27 SSE 1002,9 16 -
21.05.2019 07:00:00 27,2 25,6 37 20 54 29 SSE 1002,6 16 0,0
21.05.2019 06:00:00 27,8 25,6 35 19 57 31 S 1002,3 16 -
21.05.2019 05:00:00 27,8 25,6 37 20 54 29 S 1002,6 16 -
21.05.2019 04:00:00 27,8 25,6 35 19 52 28 S 1003,4 16 -
21.05.2019 03:00:00 28,3 25,6 35 19 57 31 S 1003,6 16 -
21.05.2019 02:00:00 28,3 25,6 39 21 63 34 SSE 1003,9 16 -
21.05.2019 01:00:00 28,3 25,6 35 19 65 35 SSE 1004,5 16 0,0
21.05.2019 00:00:00 28,9 25,6 42 23 65 35 SSE 1004,7 16 -
20.05.2019 23:00:00 28,9 26,1 39 21 67 36 SSE 1004,1 16 -
20.05.2019 22:00:00 28,9 26,1 48 26 61 33 SSE 1004,4 16 -
20.05.2019 21:00:00 28,9 26,1 41 22 61 33 SE 1003,9 16 -
20.05.2019 20:00:00 28,9 26,1 41 22 59 32 SSE 1003,8 16 -
20.05.2019 19:00:00 30,0 26,1 41 22 61 33 SSE 1004,3 16 0,0
20.05.2019 18:00:00 31,1 25,6 37 20 63 34 SE 1004,8 16 -
20.05.2019 17:00:00 32,8 25,0 41 22 61 33 SE 1005,2 16 -
20.05.2019 16:00:00 33,3 23,9 48 26 65 35 SSE 1005,9 16 -
20.05.2019 15:00:00 33,9 23,9 42 23 63 34 SSE 1007,2 16 -
20.05.2019 14:00:00 33,3 25,0 44 24 63 34 SSE 1007,9 16 -
20.05.2019 13:00:00 32,8 24,4 44 24 63 34 SSE 1009,0 16 0,0
20.05.2019 12:00:00 31,7 25,0 41 22 57 31 SSE 1009,9 16 -
20.05.2019 11:00:00 31,7 25,0 37 20 50 27 SE 1010,2 16 -
20.05.2019 10:00:00 31,1 25,0 31 17 - - SSE 1010,2 16 -
20.05.2019 09:00:00 29,4 25,6 29 16 - - SE 1010,2 16 -
20.05.2019 08:00:00 27,8 26,1 22 12 - - SSE 1010,2 16 -
20.05.2019 07:00:00 27,2 26,1 15 8 - - SSE 1009,7 16 0,0
20.05.2019 06:00:00 27,8 26,1 16 9 - - SE 1009,3 16 -
20.05.2019 05:00:00 27,8 26,1 21 11 - - SE 1009,1 16 -
20.05.2019 04:00:00 27,8 26,7 15 8 - - SE 1009,0 16 -
20.05.2019 03:00:00 28,3 26,7 16 9 - - SE 1009,2 16 -
20.05.2019 02:00:00 28,3 26,7 16 9 - - SE 1009,6 16 -
20.05.2019 01:00:00 28,3 27,2 22 12 - - SE 1010,1 16 0,0
20.05.2019 00:00:00 28,3 27,2 18 10 - - SE 1010,1 16 -
19.05.2019 23:00:00 28,3 27,2 18 10 - - SE 1009,6 16 -
19.05.2019 22:00:00 28,9 27,2 15 8 - - SE 1009,1 16 -
19.05.2019 21:00:00 28,9 27,2 22 12 - - ESE 1008,4 16 -
19.05.2019 20:00:00 28,9 27,2 21 11 - - ESE 1007,7 16 -
19.05.2019 19:00:00 31,1 26,7 18 10 - - ESE 1007,4 16 -
19.05.2019 18:00:00 31,7 26,1 22 12 - - E 1007,0 16 -
19.05.2019 17:00:00 32,2 26,1 26 14 - - ESE 1006,9 16 -
19.05.2019 16:00:00 33,3 26,1 22 12 - - SE 1007,4 16 -
19.05.2019 15:00:00 32,8 25,6 24 13 - - ESE 1008,2 16 -
19.05.2019 14:00:00 32,2 26,1 22 12 - - SSE 1008,9 16 0,0
19.05.2019 13:00:00 31,1 25,6 11 6 - - SSE 1009,8 16 0,0
19.05.2019 12:00:00 31,1 25,6 24 13 - - SSE 1010,0 16 -
19.05.2019 11:00:00 30,0 25,6 21 11 - - SE 1009,4 16 -
19.05.2019 10:00:00 29,4 25,6 26 14 - - SSE 1009,0 16 -
19.05.2019 09:00:00 28,9 26,1 21 11 - - SE 1008,3 16 -
19.05.2019 08:00:00 - - 16 9 - - ESE 1007,8 16 -
19.05.2019 07:00:00 - - 13 7 - - ESE 1007,5 13 0,0
19.05.2019 06:00:00 26,7 26,1 9 5 - - SE 1006,8 11 -
19.05.2019 05:00:00 26,7 26,1 9 5 - - SE 1006,3 11 -
19.05.2019 04:00:00 27,2 26,1 13 7 - - SE 1006,1 16 -
19.05.2019 03:00:00 27,8 26,7 15 8 - - SSE 1006,3 16 -
19.05.2019 02:00:00 27,8 26,1 15 8 - - SSE 1006,4 16 -
19.05.2019 01:00:00 27,8 26,7 21 11 - - SSE 1006,4 16 0,0
19.05.2019 00:00:00 27,8 26,1 26 14 - - SSE 1006,0 16 -
18.05.2019 23:00:00 28,3 26,7 26 14 - - SSE 1005,9 16 -
18.05.2019 22:00:00 28,3 26,7 28 15 - - SSE 1005,2 16 -
18.05.2019 21:00:00 28,3 26,7 28 15 - - SE 1004,0 16 -
18.05.2019 20:00:00 28,9 26,1 29 16 - - SE 1003,4 16 -
18.05.2019 19:00:00 30,0 26,1 24 13 - - SE 1002,9 16 0,0
18.05.2019 18:00:00 31,7 26,1 31 17 48 26 SSE 1002,8 16 -
18.05.2019 17:00:00 32,2 26,1 34 18 50 27 SSE 1002,8 16 -
18.05.2019 16:00:00 32,2 26,1 35 19 48 26 SSE 1003,7 16 -
18.05.2019 15:00:00 32,2 26,1 31 17 57 31 S 1004,4 16 -
18.05.2019 14:00:00 32,8 25,6 42 23 55 30 S 1004,5 16 -
18.05.2019 13:00:00 31,1 25,6 37 20 50 27 S 1005,5 16 0,0
18.05.2019 12:00:00 31,1 26,1 37 20 52 28 SSE 1006,0 16 -
18.05.2019 11:00:00 30,0 25,6 37 20 57 31 S 1006,3 16 -
18.05.2019 10:00:00 29,4 25,6 39 21 54 29 S 1006,4 16 -
18.05.2019 09:00:00 28,9 25,6 39 21 54 29 SSE 1006,0 16 -
18.05.2019 08:00:00 27,8 26,1 26 14 - - SSE 1006,0 16 -
18.05.2019 07:00:00 27,2 26,1 16 9 - - SSE 1005,8 16 0,0
18.05.2019 06:00:00 27,2 26,1 21 11 - - SSE 1006,0 16 -
18.05.2019 05:00:00 27,2 26,1 22 12 - - SSE 1006,4 16 -
18.05.2019 04:00:00 27,8 26,1 22 12 - - SSE 1006,4 16 -
18.05.2019 03:00:00 27,8 25,6 28 15 - - SE 1007,0 16 -
18.05.2019 02:00:00 27,8 26,1 26 14 - - SE 1007,6 16 -
18.05.2019 01:00:00 27,8 26,1 26 14 - - SE 1007,9 16 0,0
18.05.2019 00:00:00 27,8 26,1 24 13 - - SE 1008,1 16 -
17.05.2019 23:00:00 27,8 26,1 21 11 - - SE 1007,8 16 -
17.05.2019 22:00:00 27,8 26,1 31 17 - - ESE 1007,3 16 -
17.05.2019 21:00:00 28,3 26,1 29 16 - - ESE 1006,9 16 -
17.05.2019 20:00:00 28,3 26,1 31 17 - - ESE 1006,6 16 -
17.05.2019 19:00:00 29,4 25,0 29 16 - - SE 1006,1 16 0,0
17.05.2019 18:00:00 31,1 24,4 31 17 - - SE 1006,3 16 -
17.05.2019 17:00:00 31,1 24,4 21 11 - - SE 1006,8 16 -
17.05.2019 16:00:00 32,8 25,0 28 15 - - SSE 1007,3 16 -
17.05.2019 15:00:00 32,8 25,0 31 17 - - SE 1008,1 16 -
17.05.2019 14:00:00 32,2 25,0 26 14 - - SE 1008,7 16 -
17.05.2019 13:00:00 31,7 25,0 34 18 48 26 SE 1009,4 16 0,0
17.05.2019 12:00:00 31,1 25,0 28 15 48 26 SSE 1009,6 16 -
17.05.2019 11:00:00 30,6 25,0 34 18 - - SE 1009,7 16 -
17.05.2019 10:00:00 30,0 25,0 29 16 - - SE 1009,7 16 -
17.05.2019 09:00:00 27,2 25,6 28 15 - - SSE 1010,0 16 -
17.05.2019 08:00:00 26,1 25,6 18 10 - - SE 1009,5 16 -
17.05.2019 07:00:00 - - 13 7 - - SE 1009,8 16 0,0
17.05.2019 06:00:00 26,1 25,6 15 8 - - SE 1009,8 16 -
17.05.2019 05:00:00 26,1 25,6 13 7 - - SE 1010,2 16 -
17.05.2019 04:00:00 26,7 25,6 15 8 - - SE 1010,6 16 -
17.05.2019 03:00:00 26,7 25,6 15 8 - - SE 1011,0 16 -
17.05.2019 02:00:00 26,7 25,6 15 8 - - SE 1011,7 16 -
17.05.2019 01:00:00 26,1 25,0 11 6 - - ESE 1011,9 16 -
17.05.2019 00:00:00 26,1 25,0 15 8 - - SE 1012,6 16 0,0
16.05.2019 23:00:00 26,7 25,0 16 9 - - ESE 1012,8 16 -
16.05.2019 22:00:00 27,2 25,0 16 9 - - E 1012,3 16 -
16.05.2019 21:00:00 27,2 25,0 21 11 - - E 1011,7 16 -
16.05.2019 20:00:00 27,8 25,0 21 11 - - E 1011,2 16 -
16.05.2019 19:00:00 28,9 24,4 22 12 - - E 1011,2 16 0,0
16.05.2019 18:00:00 30,6 24,4 18 10 - - E 1011,5 16 -
16.05.2019 17:00:00 31,1 24,4 21 11 - - ESE 1011,7 16 -
16.05.2019 16:00:00 31,7 23,9 21 11 - - E 1012,2 16 -
16.05.2019 15:00:00 32,2 23,9 22 12 - - ESE 1013,0 16 -
16.05.2019 14:00:00 30,6 23,9 21 11 - - ESE 1013,8 16 -
16.05.2019 13:00:00 31,1 23,3 11 6 - - SE 1014,2 16 0,0
16.05.2019 12:00:00 30,6 23,3 13 7 - - E 1014,5 16 -
16.05.2019 11:00:00 30,0 23,9 16 9 - - E 1014,5 16 -
16.05.2019 10:00:00 28,9 24,4 9 5 - - ENE 1014,6 16 -
16.05.2019 09:00:00 26,7 25,0 5 3 - - ENE 1014,4 16 -
16.05.2019 08:00:00 25,0 25,0 8 4 - - NE 1014,1 6 -
16.05.2019 07:00:00 23,9 23,9 8 4 - - NE 1013,9 3,2 0,0
16.05.2019 06:00:00 23,3 23,3 0 0 - - N 1013,6 3,2 -
16.05.2019 05:00:00 23,3 23,3 5 3 - - NNE 1013,6 16 -
16.05.2019 04:00:00 23,9 23,3 0 0 - - N 1013,8 16 -
16.05.2019 03:00:00 24,4 23,9 0 0 - - N 1014,4 16 -
16.05.2019 02:00:00 25,0 23,9 5 3 - - E 1014,7 16 -
16.05.2019 01:00:00 25,0 23,9 11 6 - - E 1014,8 16 0,0
16.05.2019 00:00:00 25,0 23,9 9 5 - - E 1014,9 16 -
15.05.2019 23:00:00 25,0 23,9 9 5 - - E 1014,6 16 -
15.05.2019 22:00:00 25,6 23,9 16 9 - - E 1014,2 16 -
15.05.2019 21:00:00 26,1 23,9 11 6 - - ENE 1013,5 16 -
15.05.2019 20:00:00 26,7 23,3 18 10 - - ENE 1012,7 16 -
15.05.2019 19:00:00 27,8 22,8 24 13 - - ENE 1012,8 16 0,0
15.05.2019 18:00:00 28,3 23,3 22 12 - - ENE 1013,1 16 -
15.05.2019 17:00:00 28,3 23,3 21 11 - - ENE 1012,9 16 -
15.05.2019 16:00:00 30,6 23,3 24 13 - - NE 1013,4 16 -
15.05.2019 15:00:00 29,4 23,3 21 11 - - ENE 1013,8 16 -
15.05.2019 14:00:00 30,6 24,4 22 12 - - NE 1014,4 16 -
15.05.2019 13:00:00 29,4 23,9 22 12 - - ENE 1015,0 16 0,0
15.05.2019 12:00:00 29,4 23,9 22 12 - - NE 1015,2 16 -
15.05.2019 11:00:00 28,9 23,9 15 8 - - NE 1014,9 16 -
15.05.2019 10:00:00 28,3 23,9 9 5 - - ENE 1014,8 16 -

tt = temperature
td = dewpoint
ff = wind speed
fx = gusts
dd = wind direction
ppp = reduced air pressure
vv = visibility
rr = precipitation

Next stations